Time,TemperatureF,DewpointF,PressureIn,WindDirection,WindDirectionDegrees,WindSpeedMPH,WindSpeedGustMPH,Humidity,HourlyPrecipIn,Conditions,Clouds,dailyrainin,SoftwareType,DateUTC
2013-02-27 00:00:00,20.5,4.4,29.88,WNW,301,0.0,3.1,49,0.00,,---,0.00,VWS V14.01,2013-02-27 07:00:00,
2013-02-27 00:05:00,20.1,4.0,29.88,WNW,299,0.0,0.0,49,0.00,,---,0.00,VWS V14.01,2013-02-27 07:05:00,
2013-02-27 00:10:00,19.6,3.5,29.88,West,262,0.0,0.0,49,0.00,,---,0.00,VWS V14.01,2013-02-27 07:10:00,
2013-02-27 00:15:00,19.4,4.7,29.88,West,262,0.0,0.0,52,0.00,,---,0.00,VWS V14.01,2013-02-27 07:15:00,
2013-02-27 00:20:00,19.0,3.9,29.88,West,262,0.0,0.0,51,0.00,,---,0.00,VWS V14.01,2013-02-27 07:20:00,
2013-02-27 00:25:00,18.7,3.6,29.88,West,262,0.0,0.0,51,0.00,,---,0.00,VWS V14.01,2013-02-27 07:25:00,
2013-02-27 00:30:00,18.5,5.0,29.88,West,262,0.0,0.0,55,0.00,,---,0.00,VWS V14.01,2013-02-27 07:30:00,
2013-02-27 00:35:00,18.1,4.3,29.88,West,262,0.0,0.0,54,0.00,,---,0.00,VWS V14.01,2013-02-27 07:35:00,
2013-02-27 00:40:00,18.0,4.1,29.88,West,262,0.0,0.0,54,0.00,,---,0.00,VWS V14.01,2013-02-27 07:40:00,
2013-02-27 00:45:00,17.8,4.0,29.88,West,262,0.0,0.0,54,0.00,,---,0.00,VWS V14.01,2013-02-27 07:45:00,
2013-02-27 00:50:00,18.5,5.0,29.88,SE,141,0.0,0.0,55,0.00,,---,0.00,VWS V14.01,2013-02-27 07:50:00,
2013-02-27 00:55:00,18.9,5.4,29.88,WNW,287,0.0,0.0,55,0.00,,---,0.00,VWS V14.01,2013-02-27 07:55:00,
2013-02-27 01:00:00,18.5,4.6,29.88,WNW,284,0.0,0.0,54,0.00,,---,0.00,VWS V14.01,2013-02-27 08:00:00,
2013-02-27 01:05:00,18.1,3.9,29.88,WNW,284,0.0,0.0,53,0.00,,---,0.00,VWS V14.01,2013-02-27 08:05:00,
2013-02-27 01:10:00,17.8,3.6,29.88,WNW,284,0.0,0.0,53,0.00,,---,0.00,VWS V14.01,2013-02-27 08:10:00,
2013-02-27 01:15:00,17.6,3.8,29.88,WNW,284,0.0,0.0,54,0.00,,---,0.00,VWS V14.01,2013-02-27 08:15:00,
2013-02-27 01:20:00,17.2,3.5,29.88,WNW,284,0.0,0.0,54,0.00,,---,0.00,VWS V14.01,2013-02-27 08:20:00,
2013-02-27 01:25:00,17.1,3.3,29.88,WNW,284,0.0,0.0,54,0.00,,---,0.00,VWS V14.01,2013-02-27 08:25:00,
2013-02-27 01:30:00,16.9,3.1,29.88,WNW,284,0.0,0.0,54,0.00,,---,0.00,VWS V14.01,2013-02-27 08:30:00,
2013-02-27 01:35:00,16.7,3.3,29.88,WNW,284,0.0,0.0,55,0.00,,---,0.00,VWS V14.01,2013-02-27 08:35:00,
2013-02-27 01:40:00,16.5,3.6,29.88,WNW,284,0.0,0.0,56,0.00,,---,0.00,VWS V14.01,2013-02-27 08:40:00,
2013-02-27 01:45:00,16.3,3.4,29.88,WNW,284,0.0,0.0,56,0.00,,---,0.00,VWS V14.01,2013-02-27 08:45:00,
2013-02-27 01:50:00,16.2,3.2,29.88,WNW,285,0.0,3.6,56,0.00,,---,0.00,VWS V14.01,2013-02-27 08:50:00,
2013-02-27 01:55:00,16.2,3.2,29.88,WNW,285,0.0,0.0,56,0.00,,---,0.00,VWS V14.01,2013-02-27 08:55:00,
2013-02-27 02:00:00,16.2,3.6,29.88,South,179,0.0,0.0,57,0.00,,---,0.00,VWS V14.01,2013-02-27 09:00:00,
2013-02-27 02:05:00,16.0,3.1,29.88,WSW,257,0.0,0.0,56,0.00,,---,0.00,VWS V14.01,2013-02-27 09:05:00,
2013-02-27 02:10:00,15.8,3.7,29.88,WSW,257,0.0,0.0,58,0.00,,---,0.00,VWS V14.01,2013-02-27 09:10:00,
2013-02-27 02:15:00,15.8,3.3,29.88,WSW,257,0.0,0.0,57,0.00,,---,0.00,VWS V14.01,2013-02-27 09:15:00,
2013-02-27 02:20:00,15.8,3.7,29.88,WSW,257,0.0,0.0,58,0.00,,---,0.00,VWS V14.01,2013-02-27 09:20:00,
2013-02-27 02:25:00,15.6,3.5,29.88,WSW,257,0.0,0.0,58,0.00,,---,0.00,VWS V14.01,2013-02-27 09:25:00,
2013-02-27 02:30:00,15.4,3.3,29.88,WSW,257,0.0,0.0,58,0.00,,---,0.00,VWS V14.01,2013-02-27 09:30:00,
2013-02-27 02:35:00,15.4,3.7,29.88,SSW,208,0.0,0.0,59,0.00,,---,0.00,VWS V14.01,2013-02-27 09:35:00,
2013-02-27 02:40:00,15.3,3.5,29.88,NW,323,2.2,2.2,59,0.00,,---,0.00,VWS V14.01,2013-02-27 09:40:00,
2013-02-27 02:45:00,15.4,3.7,29.88,WNW,296,0.0,0.0,59,0.00,,---,0.00,VWS V14.01,2013-02-27 09:45:00,
2013-02-27 02:50:00,15.4,3.7,29.88,WNW,286,0.0,0.0,59,0.00,,---,0.00,VWS V14.01,2013-02-27 09:50:00,
2013-02-27 02:55:00,15.4,3.7,29.88,WNW,284,0.0,0.0,59,0.00,,---,0.00,VWS V14.01,2013-02-27 09:55:00,
2013-02-27 03:00:00,15.4,3.7,29.88,West,270,0.0,0.0,59,0.00,,---,0.00,VWS V14.01,2013-02-27 10:00:00,
2013-02-27 03:05:00,15.4,3.3,29.88,West,270,0.0,0.0,58,0.00,,---,0.00,VWS V14.01,2013-02-27 10:05:00,
2013-02-27 03:10:00,15.8,3.7,29.88,West,270,0.0,0.0,58,0.00,,---,0.00,VWS V14.01,2013-02-27 10:10:00,
2013-02-27 03:15:00,15.8,3.7,29.88,West,270,0.0,0.0,58,0.00,,---,0.00,VWS V14.01,2013-02-27 10:15:00,
2013-02-27 03:20:00,16.0,3.5,29.88,West,270,0.0,0.0,57,0.00,,---,0.00,VWS V14.01,2013-02-27 10:20:00,
2013-02-27 03:25:00,15.8,3.3,29.88,WSW,258,0.0,0.0,57,0.00,,---,0.00,VWS V14.01,2013-02-27 10:25:00,
2013-02-27 03:30:00,15.8,3.3,29.88,West,278,0.0,0.0,57,0.00,,---,0.00,VWS V14.01,2013-02-27 10:30:00,
2013-02-27 03:35:00,16.0,3.5,29.88,WNW,293,0.0,0.0,57,0.00,,---,0.00,VWS V14.01,2013-02-27 10:35:00,
2013-02-27 03:40:00,16.2,3.2,29.88,WNW,289,0.0,0.0,56,0.00,,---,0.00,VWS V14.01,2013-02-27 10:40:00,
2013-02-27 03:45:00,16.2,3.2,29.88,West,267,0.0,0.0,56,0.00,,---,0.00,VWS V14.01,2013-02-27 10:45:00,
2013-02-27 03:50:00,16.3,3.0,29.88,SSW,196,0.0,0.0,55,0.00,,---,0.00,VWS V14.01,2013-02-27 10:50:00,
2013-02-27 03:55:00,16.2,2.8,29.88,SSW,197,0.0,0.0,55,0.00,,---,0.00,VWS V14.01,2013-02-27 10:55:00,
2013-02-27 04:00:00,16.2,2.8,29.88,SSW,197,0.0,0.0,55,0.00,,---,0.00,VWS V14.01,2013-02-27 11:00:00,
2013-02-27 04:05:00,16.2,3.2,29.88,SSW,197,0.0,0.0,56,0.00,,---,0.00,VWS V14.01,2013-02-27 11:05:00,
2013-02-27 04:10:00,16.0,3.1,29.88,SSW,197,0.0,0.0,56,0.00,,---,0.00,VWS V14.01,2013-02-27 11:10:00,
2013-02-27 04:15:00,16.3,3.4,29.88,West,266,0.0,0.0,56,0.00,,---,0.00,VWS V14.01,2013-02-27 11:15:00,
2013-02-27 04:20:00,16.5,3.6,29.88,WSW,238,3.1,3.1,56,0.00,,---,0.00,VWS V14.01,2013-02-27 11:20:00,
2013-02-27 04:25:00,16.9,3.9,29.88,West,279,0.0,0.0,56,0.00,,---,0.00,VWS V14.01,2013-02-27 11:25:00,
2013-02-27 04:30:00,17.1,3.7,29.88,West,264,2.7,3.1,55,0.00,,---,0.00,VWS V14.01,2013-02-27 11:30:00,
2013-02-27 04:35:00,17.1,3.7,29.88,West,263,3.1,3.6,55,0.00,,---,0.00,VWS V14.01,2013-02-27 11:35:00,
2013-02-27 04:40:00,17.1,3.7,29.88,West,275,2.7,2.7,55,0.00,,---,0.00,VWS V14.01,2013-02-27 11:40:00,
2013-02-27 04:45:00,16.9,3.5,29.88,WSW,256,0.0,0.0,55,0.00,,---,0.00,VWS V14.01,2013-02-27 11:45:00,
2013-02-27 04:50:00,16.9,3.5,29.88,SW,229,0.0,0.0,55,0.00,,---,0.00,VWS V14.01,2013-02-27 11:50:00,
2013-02-27 04:55:00,16.7,3.3,29.88,WSW,246,2.2,2.2,55,0.00,,---,0.00,VWS V14.01,2013-02-27 11:55:00,
2013-02-27 05:00:00,16.9,3.5,29.88,West,262,2.2,2.7,55,0.00,,---,0.00,VWS V14.01,2013-02-27 12:00:00,
2013-02-27 05:05:00,16.9,3.5,29.88,SW,233,3.1,4.9,55,0.00,,---,0.00,VWS V14.01,2013-02-27 12:05:00,
2013-02-27 05:10:00,16.9,3.5,29.88,WSW,245,3.6,3.6,55,0.00,,---,0.00,VWS V14.01,2013-02-27 12:10:00,
2013-02-27 05:15:00,16.7,3.3,29.88,SW,233,2.7,3.1,55,0.00,,---,0.00,VWS V14.01,2013-02-27 12:15:00,
2013-02-27 05:20:00,16.7,3.3,29.88,WSW,256,2.7,2.7,55,0.00,,---,0.00,VWS V14.01,2013-02-27 12:20:00,
2013-02-27 05:25:00,16.9,3.5,29.88,WSW,240,2.7,3.1,55,0.00,,---,0.00,VWS V14.01,2013-02-27 12:25:00,
2013-02-27 05:30:00,16.7,3.3,29.88,WSW,240,0.0,0.0,55,0.00,,---,0.00,VWS V14.01,2013-02-27 12:30:00,
2013-02-27 05:35:00,16.9,3.5,29.88,WSW,246,2.2,3.1,55,0.00,,---,0.00,VWS V14.01,2013-02-27 12:35:00,
2013-02-27 05:40:00,17.1,3.7,29.88,WSW,240,2.7,2.7,55,0.00,,---,0.00,VWS V14.01,2013-02-27 12:40:00,
2013-02-27 05:45:00,17.4,4.0,29.88,WSW,240,0.0,2.7,55,0.00,,---,0.00,VWS V14.01,2013-02-27 12:45:00,
2013-02-27 05:50:00,17.6,4.2,29.88,WSW,239,3.6,3.6,55,0.00,,---,0.00,VWS V14.01,2013-02-27 12:50:00,
2013-02-27 05:55:00,17.8,4.0,29.88,WSW,250,0.0,0.0,54,0.00,,---,0.00,VWS V14.01,2013-02-27 12:55:00,
2013-02-27 06:00:00,17.6,3.8,29.88,WSW,250,0.0,0.0,54,0.00,,---,0.00,VWS V14.01,2013-02-27 13:00:00,
2013-02-27 06:05:00,17.8,4.0,29.88,WSW,257,3.1,3.1,54,0.00,,---,0.00,VWS V14.01,2013-02-27 13:05:00,
2013-02-27 06:10:00,18.1,4.3,29.88,WSW,254,2.7,3.6,54,0.00,,---,0.00,VWS V14.01,2013-02-27 13:10:00,
2013-02-27 06:15:00,18.3,4.5,29.88,WNW,284,4.9,4.9,54,0.00,,---,0.00,VWS V14.01,2013-02-27 13:15:00,
2013-02-27 06:20:00,18.3,4.1,29.91,WSW,247,4.0,4.0,53,0.00,,---,0.00,VWS V14.01,2013-02-27 13:20:00,
2013-02-27 06:25:00,18.3,4.1,29.91,West,271,3.1,4.0,53,0.00,,---,0.00,VWS V14.01,2013-02-27 13:25:00,
2013-02-27 06:30:00,18.1,3.9,29.91,West,273,4.0,4.0,53,0.00,,---,0.00,VWS V14.01,2013-02-27 13:30:00,
2013-02-27 06:35:00,18.1,3.9,29.91,West,266,0.0,2.2,53,0.00,,---,0.00,VWS V14.01,2013-02-27 13:35:00,
2013-02-27 06:40:00,18.0,3.7,29.91,West,265,0.0,0.0,53,0.00,,---,0.00,VWS V14.01,2013-02-27 13:40:00,
2013-02-27 06:45:00,18.0,3.7,29.91,West,265,0.0,0.0,53,0.00,,---,0.00,VWS V14.01,2013-02-27 13:45:00,
2013-02-27 06:50:00,17.8,4.0,29.91,West,265,0.0,0.0,54,0.00,,---,0.00,VWS V14.01,2013-02-27 13:50:00,
2013-02-27 06:55:00,17.8,4.0,29.91,West,265,0.0,0.0,54,0.00,,---,0.00,VWS V14.01,2013-02-27 13:55:00,
2013-02-27 07:00:00,17.6,3.8,29.91,West,265,0.0,0.0,54,0.00,,---,0.00,VWS V14.01,2013-02-27 14:00:00,
2013-02-27 07:05:00,17.6,4.2,29.91,West,265,0.0,0.0,55,0.00,,---,0.00,VWS V14.01,2013-02-27 14:05:00,
2013-02-27 07:10:00,17.6,4.2,29.91,West,265,0.0,0.0,55,0.00,,---,0.00,VWS V14.01,2013-02-27 14:10:00,
2013-02-27 07:15:00,17.6,5.0,29.91,West,265,0.0,0.0,57,0.00,,---,0.00,VWS V14.01,2013-02-27 14:15:00,
2013-02-27 07:20:00,17.6,5.0,29.91,West,265,0.0,0.0,57,0.00,,---,0.00,VWS V14.01,2013-02-27 14:20:00,
2013-02-27 07:25:00,17.8,5.1,29.91,West,265,0.0,0.0,57,0.00,,---,0.00,VWS V14.01,2013-02-27 14:25:00,
2013-02-27 07:30:00,18.1,5.5,29.91,West,265,0.0,0.0,57,0.00,,---,0.00,VWS V14.01,2013-02-27 14:30:00,
2013-02-27 07:35:00,18.1,5.5,29.88,West,265,0.0,0.0,57,0.00,,---,0.00,VWS V14.01,2013-02-27 14:35:00,
2013-02-27 07:40:00,18.3,5.7,29.88,West,265,0.0,0.0,57,0.00,,---,0.00,VWS V14.01,2013-02-27 14:40:00,
2013-02-27 07:45:00,18.5,5.8,29.88,West,265,0.0,3.1,57,0.00,,---,0.00,VWS V14.01,2013-02-27 14:45:00,
2013-02-27 07:50:00,18.9,5.8,29.88,West,265,0.0,0.0,56,0.00,,---,0.00,VWS V14.01,2013-02-27 14:50:00,
2013-02-27 07:55:00,19.0,5.9,29.88,West,265,0.0,0.0,56,0.00,,---,0.00,VWS V14.01,2013-02-27 14:55:00,
2013-02-27 08:00:00,19.0,5.9,29.88,West,266,2.7,2.7,56,0.00,,---,0.00,VWS V14.01,2013-02-27 15:00:00,
2013-02-27 08:05:00,19.0,5.5,29.88,West,266,0.0,0.0,55,0.00,,---,0.00,VWS V14.01,2013-02-27 15:05:00,
2013-02-27 08:10:00,19.2,5.7,29.88,West,266,0.0,0.0,55,0.00,,---,0.00,VWS V14.01,2013-02-27 15:10:00,
2013-02-27 08:15:00,19.6,5.7,29.88,West,264,0.0,0.0,54,0.00,,---,0.00,VWS V14.01,2013-02-27 15:15:00,
2013-02-27 08:20:00,19.9,5.6,29.91,West,263,0.0,0.0,53,0.00,,---,0.00,VWS V14.01,2013-02-27 15:20:00,
2013-02-27 08:25:00,20.3,5.5,29.91,West,263,0.0,0.0,52,0.00,,---,0.00,VWS V14.01,2013-02-27 15:25:00,
2013-02-27 08:30:00,20.5,5.7,29.91,West,263,0.0,0.0,52,0.00,,---,0.00,VWS V14.01,2013-02-27 15:30:00,
2013-02-27 08:35:00,20.7,5.8,29.91,West,263,0.0,0.0,52,0.00,,---,0.00,VWS V14.01,2013-02-27 15:35:00,
2013-02-27 08:40:00,20.8,6.0,29.91,West,263,0.0,0.0,52,0.00,,---,0.00,VWS V14.01,2013-02-27 15:40:00,
2013-02-27 08:45:00,21.0,5.7,29.91,West,263,0.0,0.0,51,0.00,,---,0.00,VWS V14.01,2013-02-27 15:45:00,
2013-02-27 08:50:00,21.2,5.9,29.91,WNW,290,0.0,0.0,51,0.00,,---,0.00,VWS V14.01,2013-02-27 15:50:00,
2013-02-27 08:55:00,21.4,6.1,29.91,WNW,290,0.0,0.0,51,0.00,,---,0.00,VWS V14.01,2013-02-27 15:55:00,
2013-02-27 09:00:00,21.7,6.4,29.91,WNW,290,0.0,0.0,51,0.00,,---,0.00,VWS V14.01,2013-02-27 16:00:00,
2013-02-27 09:05:00,21.9,6.6,29.91,WNW,299,0.0,0.0,51,0.00,,---,0.00,VWS V14.01,2013-02-27 16:05:00,
2013-02-27 09:10:00,22.5,7.5,29.91,ENE,57,0.0,2.7,52,0.00,,---,0.00,VWS V14.01,2013-02-27 16:10:00,
2013-02-27 09:15:00,23.0,8.0,29.91,NW,307,0.0,3.6,52,0.00,,---,0.00,VWS V14.01,2013-02-27 16:15:00,
2013-02-27 09:20:00,23.0,6.7,29.88,SSE,162,0.0,0.0,49,0.00,,---,0.00,VWS V14.01,2013-02-27 16:20:00,
2013-02-27 09:25:00,23.2,6.4,29.88,ESE,103,0.0,0.0,48,0.00,,---,0.00,VWS V14.01,2013-02-27 16:25:00,
2013-02-27 09:30:00,23.5,6.8,29.88,ESE,103,0.0,0.0,48,0.00,,---,0.00,VWS V14.01,2013-02-27 16:30:00,
2013-02-27 09:35:00,23.7,6.9,29.91,WSW,240,0.0,0.0,48,0.00,,---,0.00,VWS V14.01,2013-02-27 16:35:00,
2013-02-27 09:40:00,24.1,6.3,29.91,SW,223,0.0,0.0,46,0.00,,---,0.00,VWS V14.01,2013-02-27 16:40:00,
2013-02-27 09:45:00,24.4,6.6,29.91,East,82,0.0,0.0,46,0.00,,---,0.00,VWS V14.01,2013-02-27 16:45:00,
2013-02-27 09:50:00,25.0,7.1,29.91,East,81,0.0,0.0,46,0.00,,---,0.00,VWS V14.01,2013-02-27 16:50:00,
2013-02-27 09:55:00,25.3,7.0,29.91,East,80,0.0,0.0,45,0.00,,---,0.00,VWS V14.01,2013-02-27 16:55:00,
2013-02-27 10:00:00,26.1,7.2,29.91,East,80,0.0,0.0,44,0.00,,---,0.00,VWS V14.01,2013-02-27 17:00:00,
2013-02-27 10:05:00,27.5,8.5,29.91,ENE,58,4.0,4.0,44,0.00,,---,0.00,VWS V14.01,2013-02-27 17:05:00,
2013-02-27 10:10:00,28.9,8.7,29.91,NE,40,0.0,0.0,42,0.00,,---,0.00,VWS V14.01,2013-02-27 17:10:00,
2013-02-27 10:15:00,29.8,9.6,29.91,NNE,20,0.0,0.0,42,0.00,,---,0.00,VWS V14.01,2013-02-27 17:15:00,
2013-02-27 10:20:00,31.1,10.2,29.91,NNE,31,2.2,3.1,41,0.00,,---,0.00,VWS V14.01,2013-02-27 17:20:00,
2013-02-27 10:25:00,31.8,9.7,29.91,SE,137,11.4,15.0,39,0.00,,---,0.00,VWS V14.01,2013-02-27 17:25:00,
2013-02-27 10:30:00,30.2,8.2,29.91,South,176,5.8,10.5,39,0.00,,---,0.00,VWS V14.01,2013-02-27 17:30:00,
2013-02-27 10:35:00,29.1,7.3,29.88,SE,142,12.3,13.2,39,0.00,,---,0.00,VWS V14.01,2013-02-27 17:35:00,
2013-02-27 10:40:00,29.7,7.8,29.88,South,185,10.1,15.0,39,0.00,,---,0.00,VWS V14.01,2013-02-27 17:40:00,
2013-02-27 10:45:00,29.3,8.0,29.88,SE,135,11.0,11.0,40,0.00,,---,0.00,VWS V14.01,2013-02-27 17:45:00,
2013-02-27 10:50:00,29.5,7.6,29.88,SE,140,8.1,17.4,39,0.00,,---,0.00,VWS V14.01,2013-02-27 17:50:00,
2013-02-27 10:55:00,30.6,8.0,29.88,SSE,155,13.6,13.6,38,0.00,,---,0.00,VWS V14.01,2013-02-27 17:55:00,
2013-02-27 11:00:00,31.1,7.9,29.88,SSE,161,8.3,13.2,37,0.00,,---,0.00,VWS V14.01,2013-02-27 18:00:00,
2013-02-27 11:05:00,30.7,7.6,29.88,SSE,147,12.8,13.2,37,0.00,,---,0.00,VWS V14.01,2013-02-27 18:05:00,
2013-02-27 11:10:00,30.9,7.7,29.88,SSE,151,11.0,11.0,37,0.00,,---,0.00,VWS V14.01,2013-02-27 18:10:00,
2013-02-27 11:15:00,31.6,7.8,29.88,SSE,156,14.5,14.5,36,0.00,,---,0.00,VWS V14.01,2013-02-27 18:15:00,
2013-02-27 11:20:00,31.5,7.6,29.88,SE,134,4.9,10.1,36,0.00,,---,0.00,VWS V14.01,2013-02-27 18:20:00,
2013-02-27 11:25:00,31.6,8.4,29.88,SE,131,7.6,11.0,37,0.00,,---,0.00,VWS V14.01,2013-02-27 18:25:00,
2013-02-27 11:30:00,31.8,7.9,29.88,SSE,165,15.0,15.0,36,0.00,,---,0.00,VWS V14.01,2013-02-27 18:30:00,
2013-02-27 11:35:00,31.3,7.4,29.88,SE,133,11.0,17.4,36,0.00,,---,0.00,VWS V14.01,2013-02-27 18:35:00,
2013-02-27 11:40:00,32.2,8.2,29.88,SE,126,11.0,11.0,36,0.00,,---,0.00,VWS V14.01,2013-02-27 18:40:00,
2013-02-27 11:45:00,32.5,8.6,29.88,ESE,109,15.4,15.4,36,0.00,,---,0.00,VWS V14.01,2013-02-27 18:45:00,
2013-02-27 11:50:00,32.5,8.6,29.88,SE,137,11.0,11.0,36,0.00,,---,0.00,VWS V14.01,2013-02-27 18:50:00,
2013-02-27 11:55:00,33.3,9.8,29.88,ESE,112,3.6,3.6,37,0.00,,---,0.00,VWS V14.01,2013-02-27 18:55:00,
2013-02-27 12:00:00,34.9,11.3,29.88,NE,36,4.0,4.9,37,0.00,,---,0.00,VWS V14.01,2013-02-27 19:00:00,
2013-02-27 12:05:00,35.6,10.0,29.88,East,88,7.6,10.1,34,0.00,,---,0.00,VWS V14.01,2013-02-27 19:05:00,
2013-02-27 12:10:00,35.2,10.3,29.88,NE,50,4.9,8.7,35,0.00,,---,0.00,VWS V14.01,2013-02-27 19:10:00,
2013-02-27 12:15:00,33.6,8.9,29.88,SE,125,7.6,12.8,35,0.00,,---,0.00,VWS V14.01,2013-02-27 19:15:00,
2013-02-27 12:20:00,34.0,9.9,29.88,NW,305,4.0,4.0,36,0.00,,---,0.00,VWS V14.01,2013-02-27 19:20:00,
2013-02-27 12:25:00,34.3,8.9,29.88,SSE,161,8.7,10.5,34,0.00,,---,0.00,VWS V14.01,2013-02-27 19:25:00,
2013-02-27 12:30:00,34.0,9.2,29.88,SSE,167,15.4,15.4,35,0.00,,---,0.00,VWS V14.01,2013-02-27 19:30:00,
2013-02-27 12:35:00,34.0,8.6,29.85,SSE,159,12.8,13.2,34,0.00,,---,0.00,VWS V14.01,2013-02-27 19:35:00,
2013-02-27 12:40:00,34.3,8.9,29.85,SW,214,7.6,10.5,34,0.00,,---,0.00,VWS V14.01,2013-02-27 19:40:00,
2013-02-27 12:45:00,33.6,8.9,29.85,SE,146,4.9,8.3,35,0.00,,---,0.00,VWS V14.01,2013-02-27 19:45:00,
2013-02-27 12:50:00,33.6,8.9,29.88,SW,218,11.9,11.9,35,0.00,,---,0.00,VWS V14.01,2013-02-27 19:50:00,
2013-02-27 12:55:00,33.8,8.4,29.88,SSW,209,8.3,19.2,34,0.00,,---,0.00,VWS V14.01,2013-02-27 19:55:00,
2013-02-27 13:00:00,34.2,8.7,29.88,South,171,4.0,4.0,34,0.00,,---,0.00,VWS V14.01,2013-02-27 20:00:00,
2013-02-27 13:05:00,34.5,9.1,29.88,South,190,4.9,4.9,34,0.00,,---,0.00,VWS V14.01,2013-02-27 20:05:00,
2013-02-27 13:10:00,35.6,9.4,29.88,SSE,161,2.7,3.6,33,0.00,,---,0.00,VWS V14.01,2013-02-27 20:10:00,
2013-02-27 13:15:00,35.8,9.5,29.88,WSW,257,8.1,8.1,33,0.00,,---,0.00,VWS V14.01,2013-02-27 20:15:00,
2013-02-27 13:20:00,36.9,11.1,29.88,SSW,202,10.5,10.5,34,0.00,,---,0.00,VWS V14.01,2013-02-27 20:20:00,
2013-02-27 13:25:00,37.2,10.8,29.88,West,268,9.2,9.2,33,0.00,,---,0.00,VWS V14.01,2013-02-27 20:25:00,
2013-02-27 13:30:00,37.0,10.6,29.88,WNW,286,6.3,6.3,33,0.00,,---,0.00,VWS V14.01,2013-02-27 20:30:00,
2013-02-27 13:35:00,37.4,10.9,29.88,WNW,285,4.0,4.0,33,0.00,,---,0.00,VWS V14.01,2013-02-27 20:35:00,
2013-02-27 13:40:00,37.9,10.7,29.88,SW,227,10.1,15.0,32,0.00,,---,0.00,VWS V14.01,2013-02-27 20:40:00,
2013-02-27 13:45:00,38.5,11.9,29.88,NW,315,2.7,4.0,33,0.00,,---,0.00,VWS V14.01,2013-02-27 20:45:00,
2013-02-27 13:50:00,38.5,11.9,29.85,West,281,8.3,8.3,33,0.00,,---,0.00,VWS V14.01,2013-02-27 20:50:00,
2013-02-27 13:55:00,38.5,11.9,29.85,WNW,291,4.9,5.4,33,0.00,,---,0.00,VWS V14.01,2013-02-27 20:55:00,
2013-02-27 14:00:00,38.8,12.2,29.85,WSW,257,6.3,6.3,33,0.00,,---,0.00,VWS V14.01,2013-02-27 21:00:00,
2013-02-27 14:05:00,38.8,11.5,29.85,WNW,288,4.0,5.8,32,0.00,,---,0.00,VWS V14.01,2013-02-27 21:05:00,
2013-02-27 14:10:00,38.7,11.4,29.85,SW,231,4.5,4.5,32,0.00,,---,0.00,VWS V14.01,2013-02-27 21:10:00,
2013-02-27 14:15:00,39.2,11.1,29.85,West,280,4.9,4.9,31,0.00,,---,0.00,VWS V14.01,2013-02-27 21:15:00,
2013-02-27 14:20:00,39.4,11.3,29.85,South,186,0.0,3.1,31,0.00,,---,0.00,VWS V14.01,2013-02-27 21:20:00,
2013-02-27 14:25:00,39.9,11.8,29.85,NW,316,4.0,5.8,31,0.00,,---,0.00,VWS V14.01,2013-02-27 21:25:00,
2013-02-27 14:30:00,39.2,11.1,29.85,West,267,7.6,8.1,31,0.00,,---,0.00,VWS V14.01,2013-02-27 21:30:00,
2013-02-27 14:35:00,38.8,10.8,29.85,WNW,299,8.1,10.1,31,0.00,,---,0.00,VWS V14.01,2013-02-27 21:35:00,
2013-02-27 14:40:00,38.8,10.8,29.85,WNW,282,2.7,3.1,31,0.00,,---,0.00,VWS V14.01,2013-02-27 21:40:00,
2013-02-27 14:45:00,39.0,11.0,29.85,SW,232,3.1,3.1,31,0.00,,---,0.00,VWS V14.01,2013-02-27 21:45:00,
2013-02-27 14:50:00,39.0,11.0,29.85,SSW,202,3.1,3.1,31,0.00,,---,0.00,VWS V14.01,2013-02-27 21:50:00,
2013-02-27 14:55:00,39.2,10.4,29.85,WNW,303,4.0,4.0,30,0.00,,---,0.00,VWS V14.01,2013-02-27 21:55:00,
2013-02-27 15:00:00,39.2,10.4,29.85,NW,317,5.4,5.8,30,0.00,,---,0.00,VWS V14.01,2013-02-27 22:00:00,
2013-02-27 15:05:00,39.0,11.0,29.85,West,281,3.1,5.4,31,0.00,,---,0.00,VWS V14.01,2013-02-27 22:05:00,
2013-02-27 15:10:00,39.4,10.5,29.85,NW,319,4.0,7.6,30,0.00,,---,0.00,VWS V14.01,2013-02-27 22:10:00,
2013-02-27 15:15:00,39.4,10.5,29.85,West,271,5.4,5.4,30,0.00,,---,0.00,VWS V14.01,2013-02-27 22:15:00,
2013-02-27 15:20:00,39.2,10.4,29.85,West,275,9.2,9.2,30,0.00,,---,0.00,VWS V14.01,2013-02-27 22:20:00,
2013-02-27 15:25:00,39.2,10.4,29.85,NW,312,5.8,8.7,30,0.00,,---,0.00,VWS V14.01,2013-02-27 22:25:00,
2013-02-27 15:30:00,39.2,10.4,29.85,WNW,294,3.6,5.8,30,0.00,,---,0.00,VWS V14.01,2013-02-27 22:30:00,
2013-02-27 15:35:00,39.4,10.5,29.85,NW,304,7.2,7.6,30,0.00,,---,0.00,VWS V14.01,2013-02-27 22:35:00,
2013-02-27 15:40:00,39.2,10.4,29.85,West,261,10.5,10.5,30,0.00,,---,0.00,VWS V14.01,2013-02-27 22:40:00,
2013-02-27 15:45:00,39.2,10.4,29.85,WNW,303,13.2,13.2,30,0.00,,---,0.00,VWS V14.01,2013-02-27 22:45:00,
2013-02-27 15:50:00,39.2,10.4,29.85,NW,312,3.1,3.1,30,0.00,,---,0.00,VWS V14.01,2013-02-27 22:50:00,
2013-02-27 15:55:00,39.2,9.6,29.85,NW,322,8.3,8.3,29,0.00,,---,0.00,VWS V14.01,2013-02-27 22:55:00,
2013-02-27 16:00:00,39.4,9.8,29.85,NW,307,3.6,3.6,29,0.00,,---,0.00,VWS V14.01,2013-02-27 23:00:00,
2013-02-27 16:05:00,39.6,9.9,29.85,West,280,8.1,8.1,29,0.00,,---,0.00,VWS V14.01,2013-02-27 23:05:00,
2013-02-27 16:10:00,39.4,9.8,29.85,NW,325,3.6,4.9,29,0.00,,---,0.00,VWS V14.01,2013-02-27 23:10:00,
2013-02-27 16:15:00,39.4,9.8,29.85,NW,317,8.3,8.3,29,0.00,,---,0.00,VWS V14.01,2013-02-27 23:15:00,
2013-02-27 16:20:00,39.4,9.8,29.85,WNW,288,3.6,8.3,29,0.00,,---,0.00,VWS V14.01,2013-02-27 23:20:00,
2013-02-27 16:25:00,39.4,9.8,29.85,NW,305,6.3,6.3,29,0.00,,---,0.00,VWS V14.01,2013-02-27 23:25:00,
2013-02-27 16:30:00,38.8,9.3,29.85,WNW,285,7.6,7.6,29,0.00,,---,0.00,VWS V14.01,2013-02-27 23:30:00,
2013-02-27 16:35:00,38.7,9.2,29.85,West,266,6.3,6.3,29,0.00,,---,0.00,VWS V14.01,2013-02-27 23:35:00,
2013-02-27 16:40:00,38.7,9.2,29.85,WSW,258,3.6,4.9,29,0.00,,---,0.00,VWS V14.01,2013-02-27 23:40:00,
2013-02-27 16:45:00,38.7,9.2,29.85,West,265,8.7,8.7,29,0.00,,---,0.00,VWS V14.01,2013-02-27 23:45:00,
2013-02-27 16:50:00,38.3,8.8,29.85,WNW,290,8.1,8.7,29,0.00,,---,0.00,VWS V14.01,2013-02-27 23:50:00,
2013-02-27 16:55:00,37.9,8.5,29.85,WNW,297,4.0,4.0,29,0.00,,---,0.00,VWS V14.01,2013-02-27 23:55:00,
2013-02-27 17:00:00,37.6,8.2,29.85,West,263,7.6,8.7,29,0.00,,---,0.00,VWS V14.01,2013-02-28 00:00:00,
2013-02-27 17:05:00,37.2,8.6,29.85,West,273,6.3,7.6,30,0.00,,---,0.00,VWS V14.01,2013-02-28 00:05:00,
2013-02-27 17:10:00,37.0,8.5,29.85,WSW,249,6.3,6.3,30,0.00,,---,0.00,VWS V14.01,2013-02-28 00:10:00,
2013-02-27 17:15:00,36.7,8.2,29.85,SW,222,12.8,12.8,30,0.00,,---,0.00,VWS V14.01,2013-02-28 00:15:00,
2013-02-27 17:20:00,36.5,8.0,29.85,NNW,333,10.5,10.5,30,0.00,,---,0.00,VWS V14.01,2013-02-28 00:20:00,
2013-02-27 17:25:00,36.3,7.9,29.85,West,275,12.8,15.9,30,0.00,,---,0.00,VWS V14.01,2013-02-28 00:25:00,
2013-02-27 17:30:00,36.1,7.7,29.85,WNW,302,7.2,12.8,30,0.00,,---,0.00,VWS V14.01,2013-02-28 00:30:00,
2013-02-27 17:35:00,36.0,7.6,29.85,West,269,9.6,9.6,30,0.00,,---,0.00,VWS V14.01,2013-02-28 00:35:00,
2013-02-27 17:40:00,36.0,7.6,29.85,WNW,301,7.6,8.7,30,0.00,,---,0.00,VWS V14.01,2013-02-28 00:40:00,
2013-02-27 17:45:00,35.8,7.4,29.85,WNW,284,7.6,7.6,30,0.00,,---,0.00,VWS V14.01,2013-02-28 00:45:00,
2013-02-27 17:50:00,35.8,7.4,29.85,WNW,287,11.0,11.0,30,0.00,,---,0.00,VWS V14.01,2013-02-28 00:50:00,
2013-02-27 17:55:00,35.8,7.4,29.85,SW,235,3.1,5.8,30,0.00,,---,0.00,VWS V14.01,2013-02-28 00:55:00,
2013-02-27 18:00:00,35.8,7.4,29.85,WNW,301,12.8,12.8,30,0.00,,---,0.00,VWS V14.01,2013-02-28 01:00:00,
2013-02-27 18:05:00,35.8,7.4,29.85,West,279,2.2,3.6,30,0.00,,---,0.00,VWS V14.01,2013-02-28 01:05:00,
2013-02-27 18:10:00,35.8,7.4,29.85,WSW,244,4.0,4.0,30,0.00,,---,0.00,VWS V14.01,2013-02-28 01:10:00,
2013-02-27 18:15:00,35.8,7.4,29.85,West,266,6.3,6.3,30,0.00,,---,0.00,VWS V14.01,2013-02-28 01:15:00,
2013-02-27 18:20:00,35.8,7.4,29.88,WSW,252,6.3,6.3,30,0.00,,---,0.00,VWS V14.01,2013-02-28 01:20:00,
2013-02-27 18:25:00,35.8,7.4,29.88,WSW,244,5.4,5.4,30,0.00,,---,0.00,VWS V14.01,2013-02-28 01:25:00,
2013-02-27 18:30:00,35.6,7.2,29.88,WNW,285,5.8,12.3,30,0.00,,---,0.00,VWS V14.01,2013-02-28 01:30:00,
2013-02-27 18:35:00,35.6,7.2,29.88,West,265,10.1,10.1,30,0.00,,---,0.00,VWS V14.01,2013-02-28 01:35:00,
2013-02-27 18:40:00,35.6,7.2,29.88,NW,314,6.3,8.3,30,0.00,,---,0.00,VWS V14.01,2013-02-28 01:40:00,
2013-02-27 18:45:00,35.4,7.8,29.88,West,261,5.4,8.1,31,0.00,,---,0.00,VWS V14.01,2013-02-28 01:45:00,
2013-02-27 18:50:00,35.6,7.2,29.88,WSW,246,5.4,6.3,30,0.00,,---,0.00,VWS V14.01,2013-02-28 01:50:00,
2013-02-27 18:55:00,35.4,7.1,29.88,NW,324,8.3,10.1,30,0.00,,---,0.00,VWS V14.01,2013-02-28 01:55:00,
2013-02-27 19:00:00,35.4,7.1,29.88,West,273,11.0,15.0,30,0.00,,---,0.00,VWS V14.01,2013-02-28 02:00:00,
2013-02-27 19:05:00,35.6,7.2,29.88,WSW,257,8.3,8.7,30,0.00,,---,0.00,VWS V14.01,2013-02-28 02:05:00,
2013-02-27 19:10:00,35.4,7.8,29.88,West,273,11.9,11.9,31,0.00,,---,0.00,VWS V14.01,2013-02-28 02:10:00,
2013-02-27 19:15:00,35.2,7.7,29.88,West,263,4.5,4.5,31,0.00,,---,0.00,VWS V14.01,2013-02-28 02:15:00,
2013-02-27 19:20:00,35.1,7.5,29.88,WNW,300,7.6,12.8,31,0.00,,---,0.00,VWS V14.01,2013-02-28 02:20:00,
2013-02-27 19:25:00,34.9,7.3,29.88,West,262,9.6,9.6,31,0.00,,---,0.00,VWS V14.01,2013-02-28 02:25:00,
2013-02-27 19:30:00,35.1,7.5,29.88,WSW,257,8.1,8.1,31,0.00,,---,0.00,VWS V14.01,2013-02-28 02:30:00,
2013-02-27 19:35:00,35.1,7.5,29.88,WSW,237,5.8,6.3,31,0.00,,---,0.00,VWS V14.01,2013-02-28 02:35:00,
2013-02-27 19:40:00,35.1,7.5,29.88,SW,232,5.8,5.8,31,0.00,,---,0.00,VWS V14.01,2013-02-28 02:40:00,
2013-02-27 19:45:00,34.7,7.2,29.88,SW,222,3.1,3.1,31,0.00,,---,0.00,VWS V14.01,2013-02-28 02:45:00,
2013-02-27 19:50:00,34.3,6.9,29.88,SW,218,3.1,3.1,31,0.00,,---,0.00,VWS V14.01,2013-02-28 02:50:00,
2013-02-27 19:55:00,34.0,6.5,29.88,SW,234,0.0,0.0,31,0.00,,---,0.00,VWS V14.01,2013-02-28 02:55:00,
2013-02-27 20:00:00,34.0,6.5,29.88,WNW,294,0.0,0.0,31,0.00,,---,0.00,VWS V14.01,2013-02-28 03:00:00,
2013-02-27 20:05:00,34.0,6.5,29.85,West,260,6.3,6.3,31,0.00,,---,0.00,VWS V14.01,2013-02-28 03:05:00,
2013-02-27 20:10:00,34.5,7.0,29.85,WSW,258,0.0,0.0,31,0.00,,---,0.00,VWS V14.01,2013-02-28 03:10:00,
2013-02-27 20:15:00,34.3,6.9,29.85,WSW,251,0.0,0.0,31,0.00,,---,0.00,VWS V14.01,2013-02-28 03:15:00,
2013-02-27 20:20:00,34.3,6.9,29.85,WNW,292,2.7,2.7,31,0.00,,---,0.00,VWS V14.01,2013-02-28 03:20:00,
2013-02-27 20:25:00,34.0,6.5,29.85,WNW,298,0.0,0.0,31,0.00,,---,0.00,VWS V14.01,2013-02-28 03:25:00,
2013-02-27 20:30:00,33.6,6.2,29.85,NNW,334,0.0,0.0,31,0.00,,---,0.00,VWS V14.01,2013-02-28 03:30:00,
2013-02-27 20:35:00,32.7,5.4,29.85,NE,36,0.0,0.0,31,0.00,,---,0.00,VWS V14.01,2013-02-28 03:35:00,
2013-02-27 20:40:00,32.0,4.8,29.85,NE,36,0.0,0.0,31,0.00,,---,0.00,VWS V14.01,2013-02-28 03:40:00,
2013-02-27 20:45:00,31.1,4.0,29.85,NE,36,0.0,0.0,31,0.00,,---,0.00,VWS V14.01,2013-02-28 03:45:00,
2013-02-27 20:50:00,30.6,4.2,29.88,East,90,2.7,2.7,32,0.00,,---,0.00,VWS V14.01,2013-02-28 03:50:00,
2013-02-27 20:55:00,30.2,3.9,29.88,East,95,0.0,0.0,32,0.00,,---,0.00,VWS V14.01,2013-02-28 03:55:00,
2013-02-27 21:00:00,29.8,3.6,29.88,East,95,0.0,0.0,32,0.00,,---,0.00,VWS V14.01,2013-02-28 04:00:00,
2013-02-27 21:05:00,29.5,3.3,29.85,East,83,0.0,0.0,32,0.00,,---,0.00,VWS V14.01,2013-02-28 04:05:00,
2013-02-27 21:10:00,29.1,3.6,29.85,NNE,20,0.0,0.0,33,0.00,,---,0.00,VWS V14.01,2013-02-28 04:10:00,
2013-02-27 21:15:00,29.1,3.6,29.85,NNE,20,0.0,0.0,33,0.00,,---,0.00,VWS V14.01,2013-02-28 04:15:00,
2013-02-27 21:20:00,29.1,3.6,29.88,ESE,113,0.0,0.0,33,0.00,,---,0.00,VWS V14.01,2013-02-28 04:20:00,
2013-02-27 21:25:00,29.3,3.8,29.88,ESE,110,0.0,0.0,33,0.00,,---,0.00,VWS V14.01,2013-02-28 04:25:00,
2013-02-27 21:30:00,29.1,4.3,29.88,ESE,108,0.0,0.0,34,0.00,,---,0.00,VWS V14.01,2013-02-28 04:30:00,
2013-02-27 21:35:00,28.9,4.1,29.88,ESE,108,0.0,0.0,34,0.00,,---,0.00,VWS V14.01,2013-02-28 04:35:00,
2013-02-27 21:40:00,28.6,3.8,29.88,ESE,109,3.6,3.6,34,0.00,,---,0.00,VWS V14.01,2013-02-28 04:40:00,
2013-02-27 21:45:00,28.6,3.8,29.88,East,96,0.0,0.0,34,0.00,,---,0.00,VWS V14.01,2013-02-28 04:45:00,
2013-02-27 21:50:00,28.4,4.2,29.88,East,96,0.0,0.0,35,0.00,,---,0.00,VWS V14.01,2013-02-28 04:50:00,
2013-02-27 21:55:00,28.0,3.9,29.88,East,96,0.0,0.0,35,0.00,,---,0.00,VWS V14.01,2013-02-28 04:55:00,
2013-02-27 22:00:00,27.9,3.8,29.88,East,95,0.0,0.0,35,0.00,,---,0.00,VWS V14.01,2013-02-28 05:00:00,
2013-02-27 22:05:00,27.3,3.9,29.88,East,98,0.0,0.0,36,0.00,,---,0.00,VWS V14.01,2013-02-28 05:05:00,
2013-02-27 22:10:00,27.1,3.7,29.88,East,95,0.0,0.0,36,0.00,,---,0.00,VWS V14.01,2013-02-28 05:10:00,
2013-02-27 22:15:00,27.0,4.2,29.88,NE,50,5.4,6.3,37,0.00,,---,0.00,VWS V14.01,2013-02-28 05:15:00,
2013-02-27 22:20:00,26.2,6.8,29.88,East,85,3.6,4.9,43,0.00,,---,0.00,VWS V14.01,2013-02-28 05:20:00,
2013-02-27 22:25:00,25.9,9.4,29.88,ENE,66,4.0,6.3,49,0.00,,---,0.00,VWS V14.01,2013-02-28 05:25:00,
2013-02-27 22:30:00,25.7,10.5,29.88,East,82,2.7,5.8,52,0.00,,---,0.00,VWS V14.01,2013-02-28 05:30:00,
2013-02-27 22:35:00,25.9,11.1,29.88,East,85,4.9,6.3,53,0.00,,---,0.00,VWS V14.01,2013-02-28 05:35:00,
2013-02-27 22:40:00,25.7,10.9,29.88,ENE,69,2.7,3.6,53,0.00,,---,0.00,VWS V14.01,2013-02-28 05:40:00,
2013-02-27 22:45:00,25.3,10.2,29.88,ENE,72,0.0,0.0,52,0.00,,---,0.00,VWS V14.01,2013-02-28 05:45:00,
2013-02-27 22:50:00,25.3,11.0,29.91,ENE,73,0.0,0.0,54,0.00,,---,0.00,VWS V14.01,2013-02-28 05:50:00,
2013-02-27 22:55:00,25.2,10.9,29.91,ENE,74,0.0,0.0,54,0.00,,---,0.00,VWS V14.01,2013-02-28 05:55:00,
2013-02-27 23:00:00,25.2,11.3,29.91,East,87,0.0,0.0,55,0.00,,---,0.00,VWS V14.01,2013-02-28 06:00:00,
2013-02-27 23:05:00,25.3,11.4,29.91,ESE,119,0.0,0.0,55,0.00,,---,0.00,VWS V14.01,2013-02-28 06:05:00,
2013-02-27 23:10:00,25.3,11.0,29.91,ESE,116,0.0,0.0,54,0.00,,---,0.00,VWS V14.01,2013-02-28 06:10:00,
2013-02-27 23:15:00,25.3,11.0,29.91,SE,127,0.0,0.0,54,0.00,,---,0.00,VWS V14.01,2013-02-28 06:15:00,
2013-02-27 23:20:00,25.3,11.4,29.91,SE,128,0.0,0.0,55,0.00,,---,0.00,VWS V14.01,2013-02-28 06:20:00,
2013-02-27 23:25:00,25.2,10.9,29.91,SE,128,0.0,0.0,54,0.00,,---,0.00,VWS V14.01,2013-02-28 06:25:00,
2013-02-27 23:30:00,24.8,10.5,29.91,SE,128,0.0,0.0,54,0.00,,---,0.00,VWS V14.01,2013-02-28 06:30:00,
2013-02-27 23:35:00,24.3,10.4,29.91,East,95,0.0,2.7,55,0.00,,---,0.00,VWS V14.01,2013-02-28 06:35:00,
2013-02-27 23:40:00,23.7,9.5,29.91,East,96,0.0,0.0,54,0.00,,---,0.00,VWS V14.01,2013-02-28 06:40:00,
2013-02-27 23:45:00,23.5,10.2,29.91,East,95,0.0,0.0,56,0.00,,---,0.00,VWS V14.01,2013-02-28 06:45:00,
2013-02-27 23:50:00,23.4,10.8,29.91,East,95,0.0,0.0,58,0.00,,---,0.00,VWS V14.01,2013-02-28 06:50:00,
2013-02-27 23:55:00,23.0,10.1,29.91,East,95,0.0,0.0,57,0.00,,---,0.00,VWS V14.01,2013-02-28 06:55:00,